Weather History for Peoria, IL

Change the Weather History Date:

Wednesday, December 24, 2014

  Actual Average Record
Temperature  
Mean Temperature 38 °F 26 °F  
Max Temperature 39 °F 34 °F 65 °F (1889)
Min Temperature 36 °F 19 °F -18 °F (1983)
Degree Days  
Heating Degree Days 27 39  
Month to date heating degree days 733 855  
Since 1 July heating degree days 1974 2003  
Cooling Degree Days 0 0  
Month to date cooling degree days 0 0  
Year to date cooling degree days 1156 1039  
Moisture  
Dew Point 33 °F    
Average Humidity 84    
Maximum Humidity 92    
Minimum Humidity 76    
Precipitation  
Precipitation T in 0.07 in 2.52 in (1965)
Month to date precipitation 1.22 1.95  
Year to date precipitation 39.76 36.02  
Snow  
Snow 0.00 in 0.30 in 7.60 in (2010)
Month to date snowfall T 5.4  
Since 1 July snowfall 1.3 6.5  
Snow Depth 0.00 in    
Sea Level Pressure  
Sea Level Pressure 29.68 in    
Wind  
Wind Speed 7 mph (WNW)    
Max Wind Speed 16 mph    
Max Gust Speed 21 mph    
Visibility 7 miles    
Events Rain    
T = Trace of Precipitation, MM = Missing Value Source: NWS Daily Summary

Daily Weather History Graph

Daily Weather History Graph

Search for Another Location

Airport:

Trip Planner

Search our weather history database for the weather conditions in past years. The results will help you decide how hot, cold, wet, or windy it might be!

Date:

Astronomy

Dec. 24, 2014 Rise Set
Actual Time 7:20 AM CST 4:36 PM CST
Civil Twilight 6:49 AM CST 5:07 PM CST
Nautical Twilight 6:15 AM CST 5:41 PM CST
Astronomical Twilight 5:41 AM CST 6:15 PM CST
Moon 9:11 AM CST (12/24) 8:01 PM CST (12/24)
Length of Visible Light 10h 17m
Length of Day
9h 15m
Waxing Crescent, 10% of the Moon is Illuminated
Dec 24
Waxing Crescent
Dec 28
First Quarter
Jan 4
Full
Jan 13
Last Quarter
Jan 20
New

Hourly Weather History & Observations

Time (CST) Temp. Windchill Dew Point Humidity Pressure Visibility Wind Dir Wind Speed Gust Speed Precip Events Conditions
12:54 AM 39.0 °F - 32.0 °F 76% 29.72 in 10.0 mi Calm Calm - N/A   Mostly Cloudy
1:54 AM 37.0 °F - 32.0 °F 82% 29.73 in 10.0 mi Calm Calm - N/A   Overcast
2:54 AM 37.0 °F - 32.0 °F 82% 29.72 in 10.0 mi Calm Calm - N/A   Overcast
3:54 AM 37.0 °F - 32.0 °F 82% 29.70 in 10.0 mi Calm Calm - N/A   Overcast
4:22 AM 37.0 °F - 32.0 °F 82% 29.69 in 10.0 mi Calm Calm - N/A   Overcast
4:54 AM 37.0 °F 31.6 °F 32.0 °F 82% 29.68 in 9.0 mi NNW 6.9 mph - N/A   Overcast
5:12 AM 37.0 °F 33.3 °F 33.1 °F 86% 29.66 in 8.0 mi NNW 4.6 mph - N/A   Overcast
5:54 AM 35.6 °F 31.7 °F 33.8 °F 93% 29.67 in 6.0 mi NW 4.6 mph - N/A   Overcast
6:22 AM 36.0 °F - 33.1 °F 89% 29.66 in 2.5 mi Calm Calm - N/A   Overcast
6:38 AM 36.0 °F 33.3 °F 33.1 °F 89% 29.65 in 0.8 mi North 3.5 mph - N/A   Overcast
6:54 AM 37.0 °F - 34.0 °F 89% 29.68 in 0.8 mi Calm Calm - N/A   Overcast
7:54 AM 37.0 °F 34.5 °F 34.0 °F 89% 29.69 in 0.8 mi SW 3.5 mph - N/A   Overcast
8:16 AM 37.0 °F 34.5 °F 34.0 °F 89% 29.67 in 1.0 mi West 3.5 mph - N/A   Overcast
8:30 AM 37.0 °F 33.3 °F 34.0 °F 89% 29.68 in 1.0 mi West 4.6 mph - N/A   Overcast
8:41 AM 37.0 °F 32.4 °F 34.0 °F 89% 29.68 in 1.0 mi West 5.8 mph - N/A   Overcast
8:54 AM 37.0 °F 32.4 °F 34.0 °F 89% 29.69 in 1.0 mi West 5.8 mph - N/A   Overcast
9:25 AM 37.9 °F 34.4 °F 35.1 °F 89% 29.66 in 1.0 mi WNW 4.6 mph - N/A   Overcast
9:54 AM 37.9 °F 32.1 °F 34.0 °F 86% 29.66 in 2.0 mi NW 8.1 mph - N/A   Overcast
10:01 AM 37.9 °F 32.7 °F 34.0 °F 86% 29.65 in 3.0 mi NW 6.9 mph - N/A   Overcast
10:54 AM 37.9 °F 32.1 °F 33.1 °F 83% 29.64 in 8.0 mi WNW 8.1 mph - N/A   Overcast
11:54 AM 37.9 °F 31.5 °F 33.1 °F 83% 29.62 in 6.0 mi WNW 9.2 mph - N/A   Haze
12:31 PM 39.0 °F 34.0 °F 33.1 °F 79% 29.59 in 8.0 mi WNW 6.9 mph - N/A   Overcast
12:54 PM 37.9 °F 30.0 °F 33.1 °F 83% 29.60 in 7.0 mi West 12.7 mph 17.3 mph N/A   Overcast
1:54 PM 37.9 °F 31.5 °F 33.1 °F 83% 29.59 in 10.0 mi WNW 9.2 mph - N/A   Overcast
2:54 PM 37.9 °F 31.5 °F 33.1 °F 83% 29.60 in 7.0 mi WNW 9.2 mph - 0.00 in Rain Light Rain
3:08 PM 37.0 °F 30.4 °F 33.1 °F 86% 29.59 in 6.0 mi West 9.2 mph - 0.00 in   Overcast
3:54 PM 37.0 °F 30.4 °F 32.0 °F 82% 29.62 in 5.0 mi WNW 9.2 mph - 0.00 in Rain Light Rain
4:29 PM 37.0 °F 30.4 °F 32.0 °F 82% 29.62 in 9.0 mi West 9.2 mph - 0.00 in   Overcast
4:40 PM 37.0 °F 30.4 °F 32.0 °F 82% 29.62 in 9.0 mi West 9.2 mph - 0.00 in   Overcast
4:54 PM 37.0 °F 29.8 °F 32.0 °F 82% 29.64 in 9.0 mi West 10.4 mph - 0.00 in   Overcast
5:54 PM 37.9 °F 31.5 °F 32.0 °F 79% 29.66 in 10.0 mi WNW 9.2 mph - N/A   Overcast
6:20 PM 37.9 °F 31.5 °F 32.0 °F 79% 29.66 in 10.0 mi WNW 9.2 mph - N/A   Overcast
6:54 PM 37.9 °F 30.9 °F 32.0 °F 79% 29.68 in 10.0 mi West 10.4 mph 19.6 mph N/A   Overcast
7:54 PM 37.9 °F 31.5 °F 33.1 °F 83% 29.71 in 10.0 mi West 9.2 mph - N/A   Overcast
8:22 PM 37.9 °F 31.5 °F 33.1 °F 83% 29.70 in 9.0 mi West 9.2 mph - N/A   Overcast
8:54 PM 37.9 °F 31.5 °F 33.1 °F 83% 29.72 in 5.0 mi WNW 9.2 mph - N/A   Haze
9:29 PM 37.9 °F 30.9 °F 32.0 °F 79% 29.72 in 10.0 mi West 10.4 mph - N/A   Overcast
9:54 PM 37.9 °F 30.9 °F 30.9 °F 76% 29.74 in 10.0 mi West 10.4 mph - N/A   Overcast
10:37 PM 37.0 °F 28.1 °F 30.9 °F 79% 29.74 in 10.0 mi West 15.0 mph - N/A   Overcast
10:54 PM 37.0 °F 28.5 °F 30.0 °F 76% 29.76 in 10.0 mi West 13.8 mph 20.7 mph N/A   Overcast
11:35 PM 37.0 °F 29.3 °F 28.9 °F 73% 29.77 in 10.0 mi West 11.5 mph - N/A   Overcast
11:54 PM 37.0 °F 28.5 °F 28.0 °F 70% 29.79 in 10.0 mi West 13.8 mph 19.6 mph N/A   Overcast